Time,TemperatureF,DewpointF,PressureIn,WindDirection,WindDirectionDegrees,WindSpeedMPH,WindSpeedGustMPH,Humidity,HourlyPrecipIn,Conditions,Clouds,dailyrainin,SoftwareType,DateUTC
2013-03-13 00:00:00,47.9,46.0,30.20,West,278,0.0,0.0,93,0.00,,,0.01,Wunderground v.1.15,2013-03-13 07:00:00,
2013-03-13 00:05:00,47.9,46.0,30.20,West,279,0.0,0.0,93,0.00,,,0.01,Wunderground v.1.15,2013-03-13 07:05:00,
2013-03-13 00:10:00,47.8,45.9,30.20,West,279,0.0,1.0,93,0.00,,,0.00,Wunderground v.1.15,2013-03-13 07:10:00,
2013-03-13 00:20:00,47.3,45.4,30.20,West,279,0.0,0.0,93,0.00,,,0.00,Wunderground v.1.15,2013-03-13 07:20:00,
2013-03-13 00:25:00,47.3,45.7,30.20,West,279,0.0,0.0,94,0.00,,,0.01,Wunderground v.1.15,2013-03-13 07:25:00,
2013-03-13 00:30:00,47.5,46.1,30.20,WNW,290,0.0,0.0,95,0.09,,,0.02,Wunderground v.1.15,2013-03-13 07:30:00,
2013-03-13 00:35:00,47.6,46.2,30.20,WNW,290,0.0,1.0,95,0.09,,,0.02,Wunderground v.1.15,2013-03-13 07:35:00,
2013-03-13 00:40:00,47.4,46.0,30.21,WNW,299,1.0,1.0,95,0.05,,,0.02,Wunderground v.1.15,2013-03-13 07:40:00,
2013-03-13 00:45:00,47.6,46.2,30.21,NNW,333,2.0,2.0,95,0.04,,,0.02,Wunderground v.1.15,2013-03-13 07:45:00,
2013-03-13 00:50:00,47.6,46.5,30.20,NNW,333,2.0,2.0,96,0.00,,,0.02,Wunderground v.1.15,2013-03-13 07:50:00,
2013-03-13 00:55:00,47.6,46.2,30.21,NNW,333,1.0,2.0,95,0.00,,,0.02,Wunderground v.1.15,2013-03-13 07:55:00,
2013-03-13 01:00:00,47.5,46.4,30.21,NNW,333,0.0,0.0,96,0.00,,,0.02,Wunderground v.1.15,2013-03-13 08:00:00,
2013-03-13 01:10:00,46.8,45.4,30.21,NNW,333,0.0,0.0,95,0.00,,,0.02,Wunderground v.1.15,2013-03-13 08:10:00,
2013-03-13 01:15:00,46.7,45.3,30.21,NNW,333,0.0,0.0,95,0.00,,,0.02,Wunderground v.1.15,2013-03-13 08:15:00,
2013-03-13 01:20:00,46.6,45.5,30.21,NNW,333,0.0,0.0,96,0.00,,,0.02,Wunderground v.1.15,2013-03-13 08:20:00,
2013-03-13 01:25:00,46.6,45.5,30.21,NE,46,0.0,1.0,96,0.00,,,0.02,Wunderground v.1.15,2013-03-13 08:25:00,
2013-03-13 01:30:00,46.4,45.3,30.20,NE,46,1.0,1.0,96,0.00,,,0.02,Wunderground v.1.15,2013-03-13 08:30:00,
2013-03-13 01:35:00,46.5,45.4,30.20,NE,46,1.0,1.0,96,0.00,,,0.02,Wunderground v.1.15,2013-03-13 08:35:00,
2013-03-13 01:40:00,46.7,45.9,30.20,NE,46,0.0,0.0,97,0.00,,,0.02,Wunderground v.1.15,2013-03-13 08:40:00,
2013-03-13 01:45:00,46.8,46.0,30.20,NE,46,0.0,0.0,97,0.00,,,0.02,Wunderground v.1.15,2013-03-13 08:45:00,
2013-03-13 01:50:00,46.7,45.6,30.20,NE,46,0.0,0.0,96,0.00,,,0.02,Wunderground v.1.15,2013-03-13 08:50:00,
2013-03-13 01:55:00,46.7,45.9,30.20,NE,46,0.0,0.0,97,0.00,,,0.02,Wunderground v.1.15,2013-03-13 08:55:00,
2013-03-13 02:00:00,46.9,46.1,30.21,NE,46,0.0,0.0,97,0.00,,,0.02,Wunderground v.1.15,2013-03-13 09:00:00,
2013-03-13 02:05:00,46.8,46.0,30.21,NE,46,0.0,0.0,97,0.00,,,0.02,Wunderground v.1.15,2013-03-13 09:05:00,
2013-03-13 02:10:00,46.7,45.9,30.21,NE,46,0.0,0.0,97,0.00,,,0.02,Wunderground v.1.15,2013-03-13 09:10:00,
2013-03-13 02:15:00,46.7,45.9,30.21,NE,46,0.0,0.0,97,0.00,,,0.02,Wunderground v.1.15,2013-03-13 09:15:00,
2013-03-13 02:20:00,46.5,45.4,30.21,NE,46,0.0,0.0,96,0.00,,,0.02,Wunderground v.1.15,2013-03-13 09:20:00,
2013-03-13 02:25:00,46.3,45.5,30.21,NE,46,0.0,0.0,97,0.00,,,0.02,Wunderground v.1.15,2013-03-13 09:25:00,
2013-03-13 02:30:00,46.2,45.4,30.21,NE,46,0.0,0.0,97,0.00,,,0.02,Wunderground v.1.15,2013-03-13 09:30:00,
2013-03-13 02:35:00,46.0,44.9,30.21,NE,46,0.0,2.0,96,0.00,,,0.02,Wunderground v.1.15,2013-03-13 09:35:00,
2013-03-13 02:40:00,45.4,44.3,30.21,NE,46,0.0,0.0,96,0.00,,,0.02,Wunderground v.1.15,2013-03-13 09:40:00,
2013-03-13 02:50:00,45.2,44.4,30.22,NE,46,0.0,0.0,97,0.00,,,0.02,Wunderground v.1.15,2013-03-13 09:50:00,
2013-03-13 02:55:00,45.3,44.5,30.22,NE,46,0.0,0.0,97,0.00,,,0.02,Wunderground v.1.15,2013-03-13 09:55:00,
2013-03-13 03:00:00,45.5,45.0,30.22,NE,46,0.0,0.0,98,0.00,,,0.02,Wunderground v.1.15,2013-03-13 10:00:00,
2013-03-13 03:05:00,45.8,45.3,30.21,NE,46,0.0,0.0,98,0.00,,,0.02,Wunderground v.1.15,2013-03-13 10:05:00,
2013-03-13 03:10:00,46.1,45.6,30.21,NE,46,0.0,0.0,98,0.00,,,0.02,Wunderground v.1.15,2013-03-13 10:10:00,
2013-03-13 03:15:00,46.1,45.3,30.21,NE,46,0.0,0.0,97,0.00,,,0.02,Wunderground v.1.15,2013-03-13 10:15:00,
2013-03-13 03:20:00,46.2,45.7,30.21,NE,46,0.0,0.0,98,0.00,,,0.02,Wunderground v.1.15,2013-03-13 10:20:00,
2013-03-13 03:25:00,46.3,45.5,30.21,NE,46,0.0,0.0,97,0.00,,,0.02,Wunderground v.1.15,2013-03-13 10:25:00,
2013-03-13 03:30:00,46.1,45.3,30.21,NE,46,0.0,0.0,97,0.00,,,0.02,Wunderground v.1.15,2013-03-13 10:30:00,
2013-03-13 03:35:00,45.6,44.8,30.20,ENE,67,0.0,3.0,97,0.00,,,0.02,Wunderground v.1.15,2013-03-13 10:35:00,
2013-03-13 03:40:00,45.2,44.4,30.20,ENE,70,1.0,2.0,97,0.00,,,0.02,Wunderground v.1.15,2013-03-13 10:40:00,
2013-03-13 03:45:00,45.3,44.8,30.20,ENE,70,1.0,2.0,98,0.00,,,0.02,Wunderground v.1.15,2013-03-13 10:45:00,
2013-03-13 03:50:00,45.5,45.0,30.21,ENE,70,1.0,1.0,98,0.00,,,0.02,Wunderground v.1.15,2013-03-13 10:50:00,
2013-03-13 03:55:00,45.6,45.1,30.20,ENE,70,0.0,1.0,98,0.00,,,0.02,Wunderground v.1.15,2013-03-13 10:55:00,
2013-03-13 04:00:00,45.7,45.2,30.20,ENE,70,0.0,0.0,98,0.00,,,0.02,Wunderground v.1.15,2013-03-13 11:00:00,
2013-03-13 04:10:00,45.6,45.1,30.20,ENE,70,0.0,0.0,98,0.00,,,0.02,Wunderground v.1.15,2013-03-13 11:10:00,
2013-03-13 04:15:00,45.6,45.1,30.20,ENE,70,0.0,0.0,98,0.00,,,0.02,Wunderground v.1.15,2013-03-13 11:15:00,
2013-03-13 04:20:00,45.6,45.1,30.20,ENE,70,0.0,0.0,98,0.00,,,0.02,Wunderground v.1.15,2013-03-13 11:20:00,
2013-03-13 04:25:00,45.4,44.9,30.20,NE,44,1.0,1.0,98,0.00,,,0.02,Wunderground v.1.15,2013-03-13 11:25:00,
2013-03-13 04:30:00,45.5,45.0,30.20,NE,44,1.0,1.0,98,0.00,,,0.02,Wunderground v.1.15,2013-03-13 11:30:00,
2013-03-13 04:35:00,45.5,45.0,30.20,NW,317,1.0,1.0,98,0.00,,,0.02,Wunderground v.1.15,2013-03-13 11:35:00,
2013-03-13 04:40:00,45.3,44.5,30.20,NW,317,0.0,1.0,97,0.00,,,0.02,Wunderground v.1.15,2013-03-13 11:40:00,
2013-03-13 04:45:00,44.9,44.1,30.20,NW,317,0.0,1.0,97,0.00,,,0.02,Wunderground v.1.15,2013-03-13 11:45:00,
2013-03-13 04:50:00,44.8,44.3,30.20,NW,317,0.0,0.0,98,0.00,,,0.02,Wunderground v.1.15,2013-03-13 11:50:00,
2013-03-13 04:55:00,44.8,44.3,30.20,NW,317,0.0,0.0,98,0.00,,,0.02,Wunderground v.1.15,2013-03-13 11:55:00,
2013-03-13 05:00:00,45.0,44.5,30.20,NW,317,0.0,0.0,98,0.00,,,0.02,Wunderground v.1.15,2013-03-13 12:00:00,
2013-03-13 05:05:00,45.1,44.6,30.21,NW,317,0.0,0.0,98,0.00,,,0.02,Wunderground v.1.15,2013-03-13 12:05:00,
2013-03-13 05:10:00,45.1,44.6,30.21,NW,317,0.0,2.0,98,0.00,,,0.02,Wunderground v.1.15,2013-03-13 12:10:00,
2013-03-13 05:15:00,45.2,44.7,30.21,NW,311,1.0,2.0,98,0.00,,,0.02,Wunderground v.1.15,2013-03-13 12:15:00,
2013-03-13 05:20:00,45.3,44.8,30.21,NW,311,1.0,1.0,98,0.00,,,0.02,Wunderground v.1.15,2013-03-13 12:20:00,
2013-03-13 05:25:00,45.3,44.8,30.21,NW,311,0.0,1.0,98,0.00,,,0.02,Wunderground v.1.15,2013-03-13 12:25:00,
2013-03-13 05:30:00,45.3,44.8,30.21,NW,311,0.0,0.0,98,0.00,,,0.02,Wunderground v.1.15,2013-03-13 12:30:00,
2013-03-13 05:35:00,45.3,44.8,30.21,West,275,0.0,0.0,98,0.00,,,0.02,Wunderground v.1.15,2013-03-13 12:35:00,
2013-03-13 05:40:00,45.5,45.0,30.21,West,269,1.0,2.0,98,0.00,,,0.02,Wunderground v.1.15,2013-03-13 12:40:00,
2013-03-13 05:45:00,45.6,45.1,30.21,West,267,0.0,2.0,98,0.00,,,0.02,Wunderground v.1.15,2013-03-13 12:45:00,
2013-03-13 05:50:00,45.6,45.1,30.21,West,264,0.0,0.0,98,0.00,,,0.02,Wunderground v.1.15,2013-03-13 12:50:00,
2013-03-13 05:55:00,45.8,45.3,30.21,West,264,0.0,0.0,98,0.00,,,0.02,Wunderground v.1.15,2013-03-13 12:55:00,
2013-03-13 06:00:00,45.9,45.4,30.21,West,264,0.0,0.0,98,0.00,,,0.02,Wunderground v.1.15,2013-03-13 13:00:00,
2013-03-13 06:05:00,46.1,45.6,30.21,West,264,0.0,0.0,98,0.00,,,0.02,Wunderground v.1.15,2013-03-13 13:05:00,
2013-03-13 06:10:00,46.1,45.6,30.21,West,264,0.0,0.0,98,0.00,,,0.02,Wunderground v.1.15,2013-03-13 13:10:00,
2013-03-13 06:15:00,46.0,45.5,30.21,West,264,0.0,0.0,98,0.00,,,0.02,Wunderground v.1.15,2013-03-13 13:15:00,
2013-03-13 06:20:00,46.0,45.5,30.21,West,264,0.0,0.0,98,0.00,,,0.02,Wunderground v.1.15,2013-03-13 13:20:00,
2013-03-13 06:25:00,46.1,45.6,30.21,NE,55,0.0,0.0,98,0.00,,,0.02,Wunderground v.1.15,2013-03-13 13:25:00,
2013-03-13 06:30:00,46.1,45.3,30.21,ENE,70,0.0,2.0,97,0.00,,,0.02,Wunderground v.1.15,2013-03-13 13:30:00,
2013-03-13 06:35:00,45.9,45.1,30.21,ENE,70,0.0,2.0,97,0.00,,,0.02,Wunderground v.1.15,2013-03-13 13:35:00,
2013-03-13 06:40:00,45.9,45.1,30.20,ENE,70,0.0,0.0,97,0.00,,,0.02,Wunderground v.1.15,2013-03-13 13:40:00,
2013-03-13 06:45:00,45.8,45.0,30.20,ENE,70,0.0,0.0,97,0.00,,,0.02,Wunderground v.1.15,2013-03-13 13:45:00,
2013-03-13 06:50:00,45.6,44.8,30.20,East,99,0.0,2.0,97,0.00,,,0.02,Wunderground v.1.15,2013-03-13 13:50:00,
2013-03-13 06:55:00,45.8,45.0,30.20,SSE,168,2.0,3.0,97,0.00,,,0.02,Wunderground v.1.15,2013-03-13 13:55:00,
2013-03-13 07:00:00,46.2,45.4,30.20,SSE,148,4.0,6.0,97,0.00,,,0.02,Wunderground v.1.15,2013-03-13 14:00:00,
2013-03-13 07:05:00,46.4,45.3,30.19,SE,138,5.0,6.0,96,0.00,,,0.02,Wunderground v.1.15,2013-03-13 14:05:00,
2013-03-13 07:10:00,46.4,45.3,30.20,SE,142,6.0,6.0,96,0.00,,,0.02,Wunderground v.1.15,2013-03-13 14:10:00,
2013-03-13 07:15:00,46.3,44.9,30.19,SE,137,5.0,6.0,95,0.00,,,0.02,Wunderground v.1.15,2013-03-13 14:15:00,
2013-03-13 07:20:00,46.6,45.5,30.20,SE,133,4.0,4.0,96,0.00,,,0.02,Wunderground v.1.15,2013-03-13 14:20:00,
2013-03-13 07:25:00,46.7,45.3,30.19,SE,132,4.0,4.0,95,0.00,,,0.02,Wunderground v.1.15,2013-03-13 14:25:00,
2013-03-13 07:30:00,46.6,45.0,30.20,SE,144,5.0,5.0,94,0.00,,,0.02,Wunderground v.1.15,2013-03-13 14:30:00,
2013-03-13 07:35:00,46.3,44.7,30.20,SE,128,5.0,5.0,94,0.00,,,0.02,Wunderground v.1.15,2013-03-13 14:35:00,
2013-03-13 07:40:00,46.2,44.8,30.20,SE,128,5.0,5.0,95,0.00,,,0.02,Wunderground v.1.15,2013-03-13 14:40:00,
2013-03-13 07:45:00,46.2,44.8,30.20,SE,128,4.0,5.0,95,0.00,,,0.02,Wunderground v.1.15,2013-03-13 14:45:00,
2013-03-13 07:50:00,46.2,44.6,30.20,SE,134,3.0,3.0,94,0.00,,,0.02,Wunderground v.1.15,2013-03-13 14:50:00,
2013-03-13 07:55:00,46.7,45.3,30.20,SE,135,3.0,3.0,95,0.00,,,0.02,Wunderground v.1.15,2013-03-13 14:55:00,
2013-03-13 08:00:00,47.1,45.5,30.20,SE,124,3.0,3.0,94,0.00,,,0.02,Wunderground v.1.15,2013-03-13 15:00:00,
2013-03-13 08:05:00,47.2,45.6,30.20,ESE,123,2.0,3.0,94,0.00,,,0.02,Wunderground v.1.15,2013-03-13 15:05:00,
2013-03-13 08:10:00,47.3,45.7,30.20,ESE,121,2.0,2.0,94,0.00,,,0.02,Wunderground v.1.15,2013-03-13 15:10:00,
2013-03-13 08:15:00,47.3,45.4,30.20,SE,126,2.0,2.0,93,0.00,,,0.02,Wunderground v.1.15,2013-03-13 15:15:00,
2013-03-13 08:20:00,47.4,45.5,30.20,SE,130,2.0,2.0,93,0.00,,,0.02,Wunderground v.1.15,2013-03-13 15:20:00,
2013-03-13 08:25:00,47.4,45.5,30.20,ESE,121,1.0,2.0,93,0.00,,,0.02,Wunderground v.1.15,2013-03-13 15:25:00,
2013-03-13 08:35:00,47.6,45.4,30.20,SE,124,3.0,4.0,92,0.00,,,0.02,Wunderground v.1.15,2013-03-13 15:35:00,
2013-03-13 08:40:00,47.9,45.4,30.20,SE,126,5.0,5.0,91,0.00,,,0.02,Wunderground v.1.15,2013-03-13 15:40:00,
2013-03-13 08:45:00,47.9,45.1,30.20,SE,128,6.0,7.0,90,0.00,,,0.02,Wunderground v.1.15,2013-03-13 15:45:00,
2013-03-13 08:50:00,47.9,45.4,30.20,SE,127,7.0,7.0,91,0.00,,,0.02,Wunderground v.1.15,2013-03-13 15:50:00,
2013-03-13 08:55:00,47.8,45.0,30.21,ESE,123,6.0,7.0,90,0.00,,,0.02,Wunderground v.1.15,2013-03-13 15:55:00,
2013-03-13 09:00:00,47.2,44.7,30.20,ESE,121,5.0,5.0,91,0.00,,,0.02,Wunderground v.1.15,2013-03-13 16:00:00,
2013-03-13 09:05:00,47.1,44.9,30.20,SE,133,6.0,6.0,92,0.00,,,0.02,Wunderground v.1.15,2013-03-13 16:05:00,
2013-03-13 09:10:00,47.2,45.0,30.20,SE,131,7.0,7.0,92,0.00,,,0.02,Wunderground v.1.15,2013-03-13 16:10:00,
2013-03-13 09:15:00,47.4,45.2,30.20,SE,129,6.0,7.0,92,0.00,,,0.02,Wunderground v.1.15,2013-03-13 16:15:00,
2013-03-13 09:20:00,47.5,45.3,30.20,SE,127,6.0,6.0,92,0.00,,,0.02,Wunderground v.1.15,2013-03-13 16:20:00,
2013-03-13 09:25:00,47.3,45.1,30.20,SE,137,6.0,6.0,92,0.00,,,0.02,Wunderground v.1.15,2013-03-13 16:25:00,
2013-03-13 09:30:00,47.0,44.8,30.20,SE,133,6.0,6.0,92,0.00,,,0.02,Wunderground v.1.15,2013-03-13 16:30:00,
2013-03-13 09:35:00,47.0,44.8,30.20,SE,134,5.0,6.0,92,0.00,,,0.02,Wunderground v.1.15,2013-03-13 16:35:00,
2013-03-13 09:40:00,46.8,44.6,30.21,SE,139,5.0,5.0,92,0.00,,,0.02,Wunderground v.1.15,2013-03-13 16:40:00,
2013-03-13 09:50:00,47.0,45.1,30.21,SE,130,5.0,5.0,93,0.00,,,0.02,Wunderground v.1.15,2013-03-13 16:50:00,
2013-03-13 09:55:00,47.1,45.2,30.21,SE,134,5.0,7.0,93,0.00,,,0.02,Wunderground v.1.15,2013-03-13 16:55:00,
2013-03-13 10:05:00,47.9,46.0,30.21,SE,138,3.0,5.0,93,0.00,,,0.02,Wunderground v.1.15,2013-03-13 17:05:00,
2013-03-13 10:10:00,48.3,46.1,30.22,SE,126,2.0,5.0,92,0.00,,,0.02,Wunderground v.1.15,2013-03-13 17:10:00,
2013-03-13 10:15:00,48.0,45.8,30.22,SE,126,4.0,5.0,92,0.00,,,0.02,Wunderground v.1.15,2013-03-13 17:15:00,
2013-03-13 10:20:00,48.2,46.0,30.22,SE,130,3.0,3.0,92,0.00,,,0.02,Wunderground v.1.15,2013-03-13 17:20:00,
2013-03-13 10:25:00,48.5,46.3,30.22,ESE,105,2.0,3.0,92,0.00,,,0.02,Wunderground v.1.15,2013-03-13 17:25:00,
2013-03-13 10:35:00,49.0,46.8,30.22,ESE,107,2.0,4.0,92,0.00,,,0.02,Wunderground v.1.15,2013-03-13 17:35:00,
2013-03-13 10:40:00,49.0,46.5,30.22,ESE,110,2.0,2.0,91,0.00,,,0.02,Wunderground v.1.15,2013-03-13 17:40:00,
2013-03-13 10:45:00,49.0,46.5,30.22,ESE,110,2.0,3.0,91,0.00,,,0.02,Wunderground v.1.15,2013-03-13 17:45:00,
2013-03-13 10:50:00,49.1,46.6,30.22,SE,130,2.0,2.0,91,0.00,,,0.02,Wunderground v.1.15,2013-03-13 17:50:00,
2013-03-13 10:55:00,49.0,46.2,30.22,SE,129,3.0,3.0,90,0.00,,,0.02,Wunderground v.1.15,2013-03-13 17:55:00,
2013-03-13 11:00:00,49.1,46.6,30.22,ESE,105,3.0,3.0,91,0.00,,,0.02,Wunderground v.1.15,2013-03-13 18:00:00,
2013-03-13 11:05:00,49.2,46.7,30.22,ESE,105,2.0,3.0,91,0.00,,,0.02,Wunderground v.1.15,2013-03-13 18:05:00,
2013-03-13 11:10:00,49.3,46.8,30.22,ESE,105,1.0,2.0,91,0.00,,,0.02,Wunderground v.1.15,2013-03-13 18:10:00,
2013-03-13 11:15:00,49.4,46.9,30.22,ESE,105,1.0,2.0,91,0.00,,,0.02,Wunderground v.1.15,2013-03-13 18:15:00,
2013-03-13 11:20:00,49.5,47.0,30.22,ESE,103,1.0,2.0,91,0.00,,,0.02,Wunderground v.1.15,2013-03-13 18:20:00,
2013-03-13 11:25:00,49.6,47.1,30.21,ESE,103,1.0,2.0,91,0.00,,,0.02,Wunderground v.1.15,2013-03-13 18:25:00,
2013-03-13 11:30:00,49.7,47.2,30.21,ESE,103,1.0,1.0,91,0.00,,,0.02,Wunderground v.1.15,2013-03-13 18:30:00,
2013-03-13 11:35:00,49.6,46.8,30.22,ESE,103,1.0,2.0,90,0.00,,,0.02,Wunderground v.1.15,2013-03-13 18:35:00,
2013-03-13 11:40:00,49.5,46.7,30.22,ESE,103,1.0,1.0,90,0.00,,,0.02,Wunderground v.1.15,2013-03-13 18:40:00,
2013-03-13 11:45:00,49.3,46.2,30.22,SE,145,2.0,3.0,89,0.00,,,0.02,Wunderground v.1.15,2013-03-13 18:45:00,
2013-03-13 11:50:00,48.8,45.7,30.22,SE,144,2.0,2.0,89,0.00,,,0.02,Wunderground v.1.15,2013-03-13 18:50:00,
2013-03-13 11:55:00,48.4,45.6,30.22,SE,144,2.0,3.0,90,0.00,,,0.02,Wunderground v.1.15,2013-03-13 18:55:00,
2013-03-13 12:00:00,48.3,45.8,30.22,SE,145,3.0,3.0,91,0.00,,,0.02,Wunderground v.1.15,2013-03-13 19:00:00,
2013-03-13 12:10:00,48.3,45.8,30.22,SE,145,3.0,3.0,91,0.00,,,0.02,Wunderground v.1.15,2013-03-13 19:10:00,
2013-03-13 12:15:00,48.2,46.0,30.22,SE,145,2.0,3.0,92,0.00,,,0.03,Wunderground v.1.15,2013-03-13 19:15:00,
2013-03-13 12:25:00,48.5,46.3,30.22,SE,145,2.0,2.0,92,0.00,,,0.03,Wunderground v.1.15,2013-03-13 19:25:00,
2013-03-13 12:30:00,48.5,46.3,30.22,SSE,147,1.0,1.0,92,0.00,,,0.03,Wunderground v.1.15,2013-03-13 19:30:00,
2013-03-13 12:35:00,48.5,46.3,30.22,SSE,147,1.0,1.0,92,0.00,,,0.03,Wunderground v.1.15,2013-03-13 19:35:00,
2013-03-13 12:40:00,48.6,46.4,30.22,SSE,147,0.0,0.0,92,0.00,,,0.03,Wunderground v.1.15,2013-03-13 19:40:00,
2013-03-13 12:45:00,48.8,46.6,30.22,SSE,147,0.0,0.0,92,0.00,,,0.04,Wunderground v.1.15,2013-03-13 19:45:00,
2013-03-13 12:50:00,49.0,47.1,30.22,SSE,147,0.0,1.0,93,0.00,,,0.04,Wunderground v.1.15,2013-03-13 19:50:00,
2013-03-13 12:55:00,49.0,46.8,30.22,SSE,147,0.0,1.0,92,0.00,,,0.04,Wunderground v.1.15,2013-03-13 19:55:00,
2013-03-13 13:00:00,48.9,46.7,30.22,SSE,147,0.0,0.0,92,0.00,,,0.04,Wunderground v.1.15,2013-03-13 20:00:00,
2013-03-13 13:05:00,48.9,46.7,30.22,SSE,147,0.0,0.0,92,0.00,,,0.05,Wunderground v.1.15,2013-03-13 20:05:00,
2013-03-13 13:10:00,49.0,47.1,30.22,SSE,147,0.0,0.0,93,0.00,,,0.05,Wunderground v.1.15,2013-03-13 20:10:00,
2013-03-13 13:15:00,49.1,47.2,30.22,SSE,147,0.0,0.0,93,0.04,,,0.06,Wunderground v.1.15,2013-03-13 20:15:00,
2013-03-13 13:20:00,49.2,47.3,30.22,SSE,147,0.0,0.0,93,0.04,,,0.06,Wunderground v.1.15,2013-03-13 20:20:00,
2013-03-13 13:25:00,49.2,47.3,30.21,SSE,147,0.0,0.0,93,0.04,,,0.06,Wunderground v.1.15,2013-03-13 20:25:00,
2013-03-13 13:30:00,49.3,47.6,30.21,SSE,147,0.0,0.0,94,0.05,,,0.07,Wunderground v.1.15,2013-03-13 20:30:00,
2013-03-13 13:35:00,49.6,47.9,30.21,ESE,122,0.0,1.0,94,0.05,,,0.07,Wunderground v.1.15,2013-03-13 20:35:00,
2013-03-13 13:40:00,49.8,48.1,30.20,ESE,113,0.0,0.0,94,0.05,,,0.08,Wunderground v.1.15,2013-03-13 20:40:00,
2013-03-13 13:45:00,49.9,48.5,30.20,ESE,113,1.0,1.0,95,0.05,,,0.08,Wunderground v.1.15,2013-03-13 20:45:00,
2013-03-13 13:50:00,50.4,49.0,30.20,ESE,102,1.0,1.0,95,0.05,,,0.08,Wunderground v.1.15,2013-03-13 20:50:00,
2013-03-13 13:55:00,50.7,49.3,30.20,ESE,102,1.0,1.0,95,0.04,,,0.08,Wunderground v.1.15,2013-03-13 20:55:00,
2013-03-13 14:00:00,51.0,49.6,30.19,ESE,102,1.0,1.0,95,0.00,,,0.08,Wunderground v.1.15,2013-03-13 21:00:00,
2013-03-13 14:05:00,51.2,49.8,30.19,ESE,111,1.0,2.0,95,0.00,,,0.08,Wunderground v.1.15,2013-03-13 21:05:00,
2013-03-13 14:10:00,51.2,49.5,30.19,SE,128,2.0,2.0,94,0.00,,,0.08,Wunderground v.1.15,2013-03-13 21:10:00,
2013-03-13 14:15:00,50.8,48.8,30.19,SE,129,3.0,3.0,93,0.00,,,0.08,Wunderground v.1.15,2013-03-13 21:15:00,
2013-03-13 14:20:00,50.0,47.8,30.19,SE,133,3.0,4.0,92,0.00,,,0.08,Wunderground v.1.15,2013-03-13 21:20:00,
2013-03-13 14:25:00,49.7,47.8,30.19,SE,134,3.0,4.0,93,0.00,,,0.08,Wunderground v.1.15,2013-03-13 21:25:00,
2013-03-13 14:30:00,49.9,48.0,30.19,SE,136,4.0,5.0,93,0.00,,,0.08,Wunderground v.1.15,2013-03-13 21:30:00,
2013-03-13 14:35:00,49.8,47.6,30.19,SE,136,4.0,5.0,92,0.00,,,0.08,Wunderground v.1.15,2013-03-13 21:35:00,
2013-03-13 14:40:00,49.5,47.3,30.19,SE,136,3.0,3.0,92,0.00,,,0.08,Wunderground v.1.15,2013-03-13 21:40:00,
2013-03-13 14:45:00,50.2,48.3,30.19,SE,136,3.0,4.0,93,0.00,,,0.08,Wunderground v.1.15,2013-03-13 21:45:00,
2013-03-13 14:50:00,50.4,47.9,30.19,SE,137,3.0,3.0,91,0.00,,,0.08,Wunderground v.1.15,2013-03-13 21:50:00,
2013-03-13 14:55:00,50.7,48.5,30.19,SE,137,1.0,3.0,92,0.00,,,0.08,Wunderground v.1.15,2013-03-13 21:55:00,
2013-03-13 15:00:00,51.0,48.8,30.19,SE,137,0.0,1.0,92,0.00,,,0.08,Wunderground v.1.15,2013-03-13 22:00:00,
2013-03-13 15:05:00,50.9,48.4,30.18,SE,137,0.0,1.0,91,0.00,,,0.08,Wunderground v.1.15,2013-03-13 22:05:00,
2013-03-13 15:10:00,50.4,47.6,30.18,South,171,1.0,3.0,90,0.00,,,0.08,Wunderground v.1.15,2013-03-13 22:10:00,
2013-03-13 15:15:00,50.0,47.5,30.18,SW,225,2.0,3.0,91,0.00,,,0.08,Wunderground v.1.15,2013-03-13 22:15:00,
2013-03-13 15:20:00,50.1,48.2,30.18,SW,235,2.0,2.0,93,0.00,,,0.08,Wunderground v.1.15,2013-03-13 22:20:00,
2013-03-13 15:25:00,50.3,48.4,30.18,SW,235,2.0,2.0,93,0.00,,,0.08,Wunderground v.1.15,2013-03-13 22:25:00,
2013-03-13 15:30:00,49.9,48.0,30.18,West,278,2.0,4.0,93,0.00,,,0.08,Wunderground v.1.15,2013-03-13 22:30:00,
2013-03-13 15:35:00,50.2,48.3,30.17,West,278,2.0,4.0,93,0.00,,,0.08,Wunderground v.1.15,2013-03-13 22:35:00,
2013-03-13 15:40:00,50.8,49.1,30.17,West,278,1.0,2.0,94,0.00,,,0.08,Wunderground v.1.15,2013-03-13 22:40:00,
2013-03-13 15:45:00,51.0,49.0,30.17,West,278,1.0,3.0,93,0.00,,,0.08,Wunderground v.1.15,2013-03-13 22:45:00,
2013-03-13 15:50:00,51.0,49.0,30.18,West,278,2.0,4.0,93,0.00,,,0.08,Wunderground v.1.15,2013-03-13 22:50:00,
2013-03-13 15:55:00,50.8,49.1,30.18,WNW,300,4.0,5.0,94,0.00,,,0.08,Wunderground v.1.15,2013-03-13 22:55:00,
2013-03-13 16:00:00,51.4,49.7,30.18,NW,311,4.0,4.0,94,0.00,,,0.08,Wunderground v.1.15,2013-03-13 23:00:00,
2013-03-13 16:05:00,51.7,50.0,30.17,NW,309,4.0,4.0,94,0.00,,,0.08,Wunderground v.1.15,2013-03-13 23:05:00,
2013-03-13 16:10:00,51.8,50.4,30.17,NW,319,3.0,3.0,95,0.00,,,0.08,Wunderground v.1.15,2013-03-13 23:10:00,
2013-03-13 16:15:00,51.4,49.4,30.17,WNW,292,2.0,3.0,93,0.00,,,0.08,Wunderground v.1.15,2013-03-13 23:15:00,
2013-03-13 16:25:00,50.7,49.0,30.16,WNW,292,0.0,1.0,94,0.00,,,0.08,Wunderground v.1.15,2013-03-13 23:25:00,
2013-03-13 16:30:00,50.8,49.1,30.16,WNW,294,0.0,0.0,94,0.00,,,0.08,Wunderground v.1.15,2013-03-13 23:30:00,
2013-03-13 16:35:00,50.8,49.4,30.16,WNW,303,1.0,4.0,95,0.00,,,0.08,Wunderground v.1.15,2013-03-13 23:35:00,
2013-03-13 16:40:00,51.4,50.0,30.16,NE,36,2.0,2.0,95,0.00,,,0.08,Wunderground v.1.15,2013-03-13 23:40:00,
2013-03-13 16:45:00,51.5,50.1,30.16,NNE,13,2.0,4.0,95,0.00,,,0.08,Wunderground v.1.15,2013-03-13 23:45:00,
2013-03-13 16:50:00,51.5,50.1,30.16,NNE,13,2.0,2.0,95,0.00,,,0.08,Wunderground v.1.15,2013-03-13 23:50:00,
2013-03-13 16:55:00,51.6,50.2,30.15,NNE,13,2.0,2.0,95,0.00,,,0.08,Wunderground v.1.15,2013-03-13 23:55:00,
2013-03-13 17:00:00,51.6,49.9,30.15,North,11,2.0,2.0,94,0.00,,,0.08,Wunderground v.1.15,2013-03-14 00:00:00,
2013-03-13 17:05:00,51.6,49.9,30.15,NNW,327,2.0,2.0,94,0.00,,,0.08,Wunderground v.1.15,2013-03-14 00:05:00,
2013-03-13 17:10:00,51.3,49.3,30.15,NW,311,1.0,2.0,93,0.00,,,0.08,Wunderground v.1.15,2013-03-14 00:10:00,
2013-03-13 17:15:00,50.1,48.2,30.15,NW,311,1.0,2.0,93,0.00,,,0.08,Wunderground v.1.15,2013-03-14 00:15:00,
2013-03-13 17:20:00,49.5,47.6,30.15,NW,311,1.0,1.0,93,0.00,,,0.08,Wunderground v.1.15,2013-03-14 00:20:00,
2013-03-13 17:25:00,49.6,47.9,30.14,NW,311,0.0,1.0,94,0.00,,,0.08,Wunderground v.1.15,2013-03-14 00:25:00,
2013-03-13 17:35:00,49.7,48.3,30.13,NNW,340,0.0,0.0,95,0.00,,,0.08,Wunderground v.1.15,2013-03-14 00:35:00,
2013-03-13 17:40:00,49.9,48.5,30.13,NNW,340,0.0,0.0,95,0.00,,,0.08,Wunderground v.1.15,2013-03-14 00:40:00,
2013-03-13 17:45:00,49.7,48.0,30.14,NNW,340,0.0,0.0,94,0.00,,,0.08,Wunderground v.1.15,2013-03-14 00:45:00,
2013-03-13 17:50:00,49.6,48.2,30.13,NNW,340,0.0,1.0,95,0.00,,,0.08,Wunderground v.1.15,2013-03-14 00:50:00,
2013-03-13 17:55:00,49.4,48.0,30.14,NW,304,1.0,3.0,95,0.00,,,0.08,Wunderground v.1.15,2013-03-14 00:55:00,
2013-03-13 18:00:00,49.5,48.4,30.14,WNW,297,2.0,3.0,96,0.00,,,0.08,Wunderground v.1.15,2013-03-14 01:00:00,
2013-03-13 18:05:00,49.1,47.7,30.14,WNW,286,4.0,6.0,95,0.00,,,0.08,Wunderground v.1.15,2013-03-14 01:05:00,
2013-03-13 18:10:00,48.0,46.6,30.14,West,281,5.0,6.0,95,0.00,,,0.08,Wunderground v.1.15,2013-03-14 01:10:00,
2013-03-13 18:15:00,48.0,46.9,30.14,WNW,283,6.0,6.0,96,0.00,,,0.08,Wunderground v.1.15,2013-03-14 01:15:00,
2013-03-13 18:20:00,47.7,46.6,30.14,WNW,296,5.0,5.0,96,0.00,,,0.08,Wunderground v.1.15,2013-03-14 01:20:00,
2013-03-13 18:25:00,48.7,48.2,30.14,NW,317,3.0,5.0,98,0.00,,,0.08,Wunderground v.1.15,2013-03-14 01:25:00,
2013-03-13 18:30:00,49.8,49.3,30.14,NW,317,2.0,3.0,98,0.00,,,0.08,Wunderground v.1.15,2013-03-14 01:30:00,
2013-03-13 18:35:00,50.1,49.3,30.14,NW,316,3.0,4.0,97,0.00,,,0.08,Wunderground v.1.15,2013-03-14 01:35:00,
2013-03-13 18:40:00,50.2,49.1,30.14,NW,309,3.0,3.0,96,0.00,,,0.08,Wunderground v.1.15,2013-03-14 01:40:00,
2013-03-13 18:45:00,50.3,49.2,30.14,NNW,334,2.0,4.0,96,0.00,,,0.08,Wunderground v.1.15,2013-03-14 01:45:00,
2013-03-13 18:50:00,50.4,49.3,30.14,NNW,332,3.0,3.0,96,0.00,,,0.08,Wunderground v.1.15,2013-03-14 01:50:00,
2013-03-13 18:55:00,50.4,49.3,30.14,NW,316,3.0,3.0,96,0.00,,,0.08,Wunderground v.1.15,2013-03-14 01:55:00,
2013-03-13 19:00:00,50.0,48.6,30.15,WNW,284,3.0,4.0,95,0.00,,,0.08,Wunderground v.1.15,2013-03-14 02:00:00,
2013-03-13 19:05:00,49.8,48.7,30.14,WNW,292,4.0,4.0,96,0.00,,,0.08,Wunderground v.1.15,2013-03-14 02:05:00,
2013-03-13 19:10:00,49.7,48.6,30.13,WNW,300,3.0,3.0,96,0.00,,,0.08,Wunderground v.1.15,2013-03-14 02:10:00,
2013-03-13 19:15:00,49.5,48.1,30.13,NNW,331,3.0,3.0,95,0.00,,,0.08,Wunderground v.1.15,2013-03-14 02:15:00,
2013-03-13 19:20:00,49.6,48.5,30.13,NNW,335,2.0,2.0,96,0.00,,,0.08,Wunderground v.1.15,2013-03-14 02:20:00,
2013-03-13 19:25:00,49.4,48.0,30.13,NNW,346,1.0,2.0,95,0.00,,,0.08,Wunderground v.1.15,2013-03-14 02:25:00,
2013-03-13 19:35:00,48.7,47.3,30.13,NNE,19,1.0,2.0,95,0.00,,,0.08,Wunderground v.1.15,2013-03-14 02:35:00,
2013-03-13 19:40:00,48.4,47.0,30.14,NNE,19,1.0,1.0,95,0.00,,,0.08,Wunderground v.1.15,2013-03-14 02:40:00,
2013-03-13 19:45:00,48.3,46.9,30.13,NNE,14,0.0,1.0,95,0.00,,,0.08,Wunderground v.1.15,2013-03-14 02:45:00,
2013-03-13 19:50:00,48.2,46.8,30.13,NNE,14,2.0,3.0,95,0.00,,,0.08,Wunderground v.1.15,2013-03-14 02:50:00,
2013-03-13 19:55:00,48.1,46.7,30.13,NNE,12,2.0,3.0,95,0.00,,,0.08,Wunderground v.1.15,2013-03-14 02:55:00,
2013-03-13 20:00:00,48.1,46.7,30.12,NNE,16,1.0,1.0,95,0.00,,,0.08,Wunderground v.1.15,2013-03-14 03:00:00,
2013-03-13 20:05:00,48.1,47.0,30.12,North,5,1.0,1.0,96,0.00,,,0.08,Wunderground v.1.15,2013-03-14 03:05:00,
2013-03-13 20:10:00,48.1,47.0,30.12,North,5,1.0,1.0,96,0.00,,,0.08,Wunderground v.1.15,2013-03-14 03:10:00,
2013-03-13 20:15:00,47.9,46.5,30.12,North,5,0.0,1.0,95,0.00,,,0.08,Wunderground v.1.15,2013-03-14 03:15:00,
2013-03-13 20:20:00,47.5,46.1,30.12,West,277,1.0,3.0,95,0.00,,,0.08,Wunderground v.1.15,2013-03-14 03:20:00,
2013-03-13 20:25:00,47.0,45.6,30.13,West,277,2.0,3.0,95,0.00,,,0.08,Wunderground v.1.15,2013-03-14 03:25:00,
2013-03-13 20:30:00,46.9,45.8,30.13,WNW,288,3.0,3.0,96,0.00,,,0.08,Wunderground v.1.15,2013-03-14 03:30:00,
2013-03-13 20:35:00,47.0,45.9,30.13,NW,305,2.0,3.0,96,0.00,,,0.08,Wunderground v.1.15,2013-03-14 03:35:00,
2013-03-13 20:40:00,47.2,46.1,30.12,NNW,327,2.0,2.0,96,0.00,,,0.08,Wunderground v.1.15,2013-03-14 03:40:00,
2013-03-13 20:45:00,47.2,46.1,30.12,NNW,327,0.0,2.0,96,0.00,,,0.08,Wunderground v.1.15,2013-03-14 03:45:00,
2013-03-13 20:50:00,47.2,46.1,30.12,NNW,327,0.0,0.0,96,0.00,,,0.08,Wunderground v.1.15,2013-03-14 03:50:00,
2013-03-13 20:55:00,46.8,45.7,30.12,NNW,327,0.0,0.0,96,0.00,,,0.08,Wunderground v.1.15,2013-03-14 03:55:00,
2013-03-13 21:05:00,45.9,44.8,30.12,NNW,327,1.0,1.0,96,0.00,,,0.08,Wunderground v.1.15,2013-03-14 04:05:00,
2013-03-13 21:10:00,45.8,44.7,30.13,NNW,327,1.0,1.0,96,0.00,,,0.08,Wunderground v.1.15,2013-03-14 04:10:00,
2013-03-13 21:15:00,45.7,44.6,30.13,NNW,327,1.0,2.0,96,0.00,,,0.08,Wunderground v.1.15,2013-03-14 04:15:00,
2013-03-13 21:20:00,45.5,44.4,30.13,NNW,327,1.0,1.0,96,0.00,,,0.08,Wunderground v.1.15,2013-03-14 04:20:00,
2013-03-13 21:25:00,45.6,44.8,30.13,NNW,327,0.0,1.0,97,0.00,,,0.08,Wunderground v.1.15,2013-03-14 04:25:00,
2013-03-13 21:30:00,45.6,44.8,30.13,NNW,327,0.0,0.0,97,0.00,,,0.08,Wunderground v.1.15,2013-03-14 04:30:00,
2013-03-13 21:35:00,45.5,44.7,30.13,NNW,327,0.0,0.0,97,0.00,,,0.08,Wunderground v.1.15,2013-03-14 04:35:00,
2013-03-13 21:40:00,45.6,44.8,30.12,NNW,327,0.0,0.0,97,0.00,,,0.08,Wunderground v.1.15,2013-03-14 04:40:00,
2013-03-13 21:50:00,45.9,45.1,30.12,NNW,327,0.0,1.0,97,0.00,,,0.08,Wunderground v.1.15,2013-03-14 04:50:00,
2013-03-13 21:55:00,45.7,44.9,30.12,NNW,327,0.0,1.0,97,0.00,,,0.08,Wunderground v.1.15,2013-03-14 04:55:00,
2013-03-13 22:00:00,45.4,44.6,30.12,NNW,327,0.0,1.0,97,0.00,,,0.08,Wunderground v.1.15,2013-03-14 05:00:00,
2013-03-13 22:05:00,45.2,44.4,30.11,NNW,327,1.0,1.0,97,0.00,,,0.08,Wunderground v.1.15,2013-03-14 05:05:00,
2013-03-13 22:10:00,45.2,44.4,30.11,NNW,327,1.0,2.0,97,0.00,,,0.08,Wunderground v.1.15,2013-03-14 05:10:00,
2013-03-13 22:15:00,45.1,44.3,30.11,NNW,327,2.0,2.0,97,0.00,,,0.08,Wunderground v.1.15,2013-03-14 05:15:00,
2013-03-13 22:20:00,45.6,45.1,30.11,NNW,327,1.0,2.0,98,0.00,,,0.08,Wunderground v.1.15,2013-03-14 05:20:00,
2013-03-13 22:25:00,45.7,44.9,30.11,NNW,327,1.0,2.0,97,0.00,,,0.08,Wunderground v.1.15,2013-03-14 05:25:00,
2013-03-13 22:30:00,45.6,44.8,30.11,NNW,327,1.0,1.0,97,0.00,,,0.08,Wunderground v.1.15,2013-03-14 05:30:00,
2013-03-13 22:35:00,45.6,44.8,30.11,NNW,327,0.0,1.0,97,0.00,,,0.08,Wunderground v.1.15,2013-03-14 05:35:00,
2013-03-13 22:40:00,45.5,44.7,30.11,NNW,327,0.0,0.0,97,0.00,,,0.08,Wunderground v.1.15,2013-03-14 05:40:00,
2013-03-13 22:45:00,45.4,44.6,30.11,NNW,327,0.0,0.0,97,0.00,,,0.08,Wunderground v.1.15,2013-03-14 05:45:00,
2013-03-13 22:50:00,45.4,44.9,30.11,NNW,327,0.0,0.0,98,0.00,,,0.08,Wunderground v.1.15,2013-03-14 05:50:00,
2013-03-13 22:55:00,45.4,44.9,30.11,NNW,327,0.0,0.0,98,0.00,,,0.08,Wunderground v.1.15,2013-03-14 05:55:00,
2013-03-13 23:00:00,45.4,44.9,30.11,NNW,327,0.0,0.0,98,0.00,,,0.08,Wunderground v.1.15,2013-03-14 06:00:00,
2013-03-13 23:05:00,45.6,45.1,30.11,NNW,327,0.0,0.0,98,0.00,,,0.08,Wunderground v.1.15,2013-03-14 06:05:00,
2013-03-13 23:10:00,45.8,45.3,30.11,NNW,327,0.0,0.0,98,0.00,,,0.08,Wunderground v.1.15,2013-03-14 06:10:00,
2013-03-13 23:15:00,45.8,45.3,30.11,NNW,327,0.0,0.0,98,0.00,,,0.08,Wunderground v.1.15,2013-03-14 06:15:00,
2013-03-13 23:20:00,45.9,45.4,30.11,NNW,327,0.0,0.0,98,0.00,,,0.08,Wunderground v.1.15,2013-03-14 06:20:00,
2013-03-13 23:25:00,45.9,45.4,30.11,NNW,327,0.0,1.0,98,0.00,,,0.08,Wunderground v.1.15,2013-03-14 06:25:00,
2013-03-13 23:30:00,45.9,45.4,30.11,NNW,327,0.0,0.0,98,0.00,,,0.08,Wunderground v.1.15,2013-03-14 06:30:00,
2013-03-13 23:35:00,45.8,45.3,30.11,NNW,327,0.0,0.0,98,0.00,,,0.08,Wunderground v.1.15,2013-03-14 06:35:00,
2013-03-13 23:45:00,45.8,45.3,30.11,NNW,327,0.0,0.0,98,0.00,,,0.08,Wunderground v.1.15,2013-03-14 06:45:00,
2013-03-13 23:50:00,45.9,45.4,30.11,NNW,327,0.0,0.0,98,0.00,,,0.08,Wunderground v.1.15,2013-03-14 06:50:00,
2013-03-13 23:55:00,45.6,44.8,30.11,NNW,327,0.0,0.0,97,0.00,,,0.08,Wunderground v.1.15,2013-03-14 06:55:00,